SUPERBIRD-C2

Last updated on Sat Aug 15 2026 00:02:57 GMT+0000 (Coordinated Universal Time)

1 33274U 08038A 26226.57475380 -.00000322 00000+0 00000+0 0 9991 2 33274 2.5071 80.5070 0006184 52.6173 172.7930 1.00272089106318
UTC large
Height (km)
Speed (km/s)
/
Latitude / Longitude
Inclination (degrees)
Orbital Period (minutes)
Azimuth
Elevation
Range (km)
Doppler Factor

Next 0 passes for location: London (51.5072 / 0.1276)

No passes found over London.
SUPERBIRD-C2